Simultaneous Nadir Overpasses (SNOs) Predictions

Prediction of SNOs between GOES-16 and NPP Satellite Orbit:

Table of predicted SNOs for the next 14.0 days since TLE Epoch: 3/7/2020
Index Date Time (GOES-16) GOES-16 Lat,Lon NPP Lat,Lon Distance(km) Time Diff (sec)
1 03/08/2020 06:44:28 0.04, -75.19 1.00, -79.46 487.51 80
2 03/09/2020 06:23:04 0.04, -75.18 -0.00, -74.93 28.38 80
3 03/11/2020 18:26:16 -0.03, -75.18 -0.14, -75.71 60.45 80
4 03/12/2020 18:10:12 -0.04, -75.18 0.87, -71.18 456.07 80
5 03/14/2020 06:32:00 0.04, -75.19 0.30, -76.46 143.98 80
6 03/15/2020 06:10:36 0.04, -75.19 -0.71, -71.92 372.71 80
7 03/16/2020 18:32:32 -0.04, -75.20 -0.50, -77.22 231.42 80
8 03/17/2020 18:16:28 -0.04, -75.20 0.51, -72.69 285.70 80
9 03/19/2020 06:38:16 0.04, -75.22 0.66, -77.97 313.17 80
10 03/20/2020 06:16:51 0.05, -75.23 -0.35, -73.44 204.29 80




NCC Satellite Simultaneous Nadir Overpasses (SNOs) Prediction Service
